GALAXY 13 (HORIZONS 1)

Last updated on Tue Mar 22 2022 00:02:42 GMT+0000 (Coordinated Universal Time)

1 27954U 03044A 22080.51216206 .00000048 00000+0 00000+0 0 9993 2 27954 0.0244 132.6666 0001619 230.5447 233.1302 1.00270138 67628

Satellite not in orbit

GALAXY 13 (HORIZONS 1)